| time (UTC) | temp C | wind direction | speed KPH | gust KPH | rain 1hr cm | rain 24hr cm | rain mn cm | humidity % | barometer mb |
| 20260506073045 | 20 | 250 | 6.4 | 12.9 | 0.00 | 0.00 | 0.00 | 27 | 999.9 |
| 20260506071552 | 20 | 236 | 4.8 | 12.9 | 0.00 | 0.00 | 0.00 | 27 | 999.7 |
| 20260506061531 | 20 | 211 | 4.8 | 11.3 | 0.00 | 0.00 | 0.00 | 28 | 999.5 |
| 20260506044525 | 21 | 103 | 3.2 | 4.8 | 0.00 | 0.00 | 0.00 | 26 | 999.2 |
| 20260506043025 | 21 | 339 | 1.6 | 4.8 | 0.00 | 0.00 | 0.00 | 25 | 999.3 |
| 20260506041528 | 21 | 339 | 1.6 | 4.8 | 0.00 | 0.00 | 0.00 | 25 | 999.0 |
| 20260506040025 | 21 | 339 | 0.0 | 0.0 | 0.00 | 0.00 | 0.00 | 25 | 998.6 |
| 20260506034520 | 21 | 339 | 0.0 | 0.0 | 0.00 | 0.00 | 0.00 | 25 | 998.7 |
| 20260506033026 | 21 | 339 | 0.0 | 0.0 | 0.00 | 0.00 | 0.00 | 24 | 998.1 |
| 20260506031524 | 21 | 339 | 0.0 | 3.2 | 0.00 | 0.00 | 0.00 | 25 | 997.9 |
| 20260506030023 | 21 | 339 | 1.6 | 6.4 | 0.00 | 0.00 | 0.00 | 25 | 997.8 |
| 20260506024518 | 21 | 322 | 3.2 | 8.0 | 0.00 | 0.00 | 0.00 | 25 | 997.6 |
| 20260506023018 | 21 | 282 | 4.8 | 11.3 | 0.00 | 0.00 | 0.00 | 24 | 997.8 |
| 20260506021517 | 22 | 313 | 3.2 | 9.7 | 0.00 | 0.00 | 0.00 | 24 | 997.2 |
| 20260506020022 | 22 | 281 | 6.4 | 12.9 | 0.00 | 0.00 | 0.00 | 23 | 997.4 |
| 20260506014519 | 22 | 330 | 1.6 | 4.8 | 0.00 | 0.00 | 0.00 | 23 | 997.0 |
| 20260506013025 | 22 | 347 | 1.6 | 3.2 | 0.00 | 0.00 | 0.00 | 22 | 997.2 |
| 20260506011514 | 22 | 322 | 1.6 | 12.9 | 0.00 | 0.00 | 0.00 | 22 | 996.9 |
| 20260506010023 | 23 | 323 | 9.7 | 17.7 | 0.00 | 0.00 | 0.00 | 22 | 996.9 |
| 20260506004519 | 23 | 319 | 8.0 | 20.9 | 0.00 | 0.00 | 0.00 | 22 | 997.0 |
| 20260506003014 | 23 | 306 | 11.3 | 22.5 | 0.00 | 0.00 | 0.00 | 21 | 996.8 |
| 20260506001514 | 25 | 315 | 14.5 | 25.7 | 0.00 | 0.00 | 0.00 | 19 | 996.6 |
| 20260506000018 | 25 | 285 | 4.8 | 16.1 | 0.00 | 0.00 | 0.00 | 18 | 996.7 |
| 20260505234517 | 26 | 269 | 11.3 | 20.9 | 0.00 | 0.00 | 0.00 | 18 | 996.5 |
| 20260505233009 | 26 | 291 | 11.3 | 22.5 | 0.00 | 0.00 | 0.00 | 18 | 996.6 |
| 20260505231508 | 26 | 263 | 11.3 | 22.5 | 0.00 | 0.00 | 0.00 | 18 | 996.5 |
| 20260505230009 | 25 | 275 | 12.9 | 24.1 | 0.00 | 0.00 | 0.00 | 18 | 996.8 |
| 20260505224507 | 25 | 296 | 14.5 | 22.5 | 0.00 | 0.00 | 0.00 | 18 | 996.8 |
| 20260505223008 | 25 | 298 | 9.7 | 22.5 | 0.00 | 0.00 | 0.00 | 19 | 996.9 |
| 20260505221503 | 25 | 298 | 12.9 | 22.5 | 0.00 | 0.00 | 0.00 | 18 | 996.8 |
| 20260505220006 | 25 | 282 | 19.3 | 32.2 | 0.00 | 0.00 | 0.00 | 18 | 997.1 |
| 20260505214502 | 25 | 292 | 17.7 | 27.4 | 0.00 | 0.00 | 0.00 | 17 | 997.2 |
| 20260505213000 | 26 | 262 | 12.9 | 27.4 | 0.00 | 0.00 | 0.00 | 18 | 997.2 |
| 20260505211624 | 26 | 288 | 16.1 | 25.7 | 0.00 | 0.00 | 0.00 | 18 | 997.2 |
| 20260505210108 | 27 | 297 | 14.5 | 25.7 | 0.00 | 0.00 | 0.00 | 19 | 997.4 |
| 20260505204559 | 27 | 346 | 16.1 | 27.4 | 0.00 | 0.00 | 0.00 | 19 | 997.3 |
| 20260505203058 | 28 | 246 | 19.3 | 29.0 | 0.00 | 0.00 | 0.00 | 18 | 997.7 |
| 20260505201605 | 27 | 290 | 14.5 | 27.4 | 0.00 | 0.00 | 0.00 | 19 | 997.9 |
| 20260505200053 | 27 | 304 | 16.1 | 27.4 | 0.00 | 0.00 | 0.00 | 20 | 998.0 |
| 20260505194554 | 26 | 295 | 16.1 | 33.8 | 0.00 | 0.00 | 0.00 | 20 | 998.3 |
| 20260505193052 | 26 | 263 | 12.9 | 33.8 | 0.00 | 0.00 | 0.00 | 20 | 998.2 |
| 20260505191555 | 26 | 266 | 14.5 | 25.7 | 0.00 | 0.00 | 0.00 | 20 | 998.2 |
| 20260505184556 | 25 | 226 | 11.3 | 25.7 | 0.00 | 0.00 | 0.00 | 22 | 998.7 |
| 20260505183050 | 25 | 279 | 19.3 | 27.4 | 0.00 | 0.00 | 0.00 | 21 | 998.7 |
| 20260505181541 | 25 | 225 | 16.1 | 29.0 | 0.00 | 0.00 | 0.00 | 22 | 998.9 |
| 20260505180042 | 24 | 267 | 17.7 | 24.1 | 0.00 | 0.00 | 0.00 | 23 | 999.0 |
| 20260505174542 | 23 | 307 | 8.0 | 22.5 | 0.00 | 0.00 | 0.00 | 24 | 999.0 |
| 20260505173041 | 23 | 275 | 8.0 | 25.7 | 0.00 | 0.00 | 0.00 | 25 | 999.2 |
| 20260505171540 | 23 | 295 | 9.7 | 20.9 | 0.00 | 0.00 | 0.00 | 25 | 999.4 |
| 20260505170036 | 23 | 238 | 14.5 | 22.5 | 0.00 | 0.00 | 0.00 | 25 | 999.3 |
| 20260505164537 | 23 | 300 | 14.5 | 22.5 | 0.00 | 0.00 | 0.00 | 25 | 999.3 |
| 20260505163032 | 23 | 328 | 16.1 | 27.4 | 0.00 | 0.00 | 0.00 | 25 | 999.3 |
| 20260505161530 | 23 | 244 | 17.7 | 27.4 | 0.00 | 0.00 | 0.00 | 25 | 999.2 |
| 20260505153030 | 22 | 267 | 12.9 | 20.9 | 0.00 | 0.00 | 0.00 | 26 | 998.8 |
| 20260505151523 | 21 | 253 | 12.9 | 20.9 | 0.00 | 0.00 | 0.00 | 27 | 998.7 |
| 20260505124519 | 18 | 265 | 8.0 | 14.5 | 0.00 | 0.00 | 0.00 | 32 | 997.5 |
| 20260505123020 | 17 | 261 | 6.4 | 16.1 | 0.00 | 0.00 | 0.00 | 32 | 997.4 |
| 20260505121513 | 17 | 267 | 6.4 | 12.9 | 0.00 | 0.00 | 0.00 | 32 | 997.5 |
| 20260505120012 | 17 | 273 | 6.4 | 16.1 | 0.00 | 0.00 | 0.00 | 32 | 997.4 |
| 20260505114509 | 17 | 272 | 6.4 | 11.3 | 0.00 | 0.00 | 0.00 | 32 | 997.3 |
| 20260505113008 | 18 | 267 | 4.8 | 9.7 | 0.00 | 0.00 | 0.00 | 31 | 997.1 |
| 20260505111509 | 18 | 264 | 6.4 | 11.3 | 0.00 | 0.00 | 0.00 | 30 | 997.2 |
| 20260505101558 | 18 | 263 | 8.0 | 12.9 | 0.00 | 0.00 | 0.00 | 28 | 997.4 |
| 20260505100101 | 19 | 248 | 6.4 | 12.9 | 0.00 | 0.00 | 0.00 | 28 | 997.2 |
| 20260505094555 | 19 | 278 | 6.4 | 11.3 | 0.00 | 0.00 | 0.00 | 27 | 997.3 |
| 20260505093055 | 19 | 303 | 6.4 | 12.9 | 0.00 | 0.00 | 0.00 | 28 | 997.1 |
| 20260505091552 | 19 | 291 | 6.4 | 9.7 | 0.00 | 0.00 | 0.00 | 28 | 997.1 |
| 20260505090105 | 19 | 300 | 4.8 | 11.3 | 0.00 | 0.00 | 0.00 | 28 | 997.3 |
| 20260505084547 | 20 | 281 | 6.4 | 14.5 | 0.00 | 0.00 | 0.00 | 27 | 997.3 |
| 20260505083044 | 20 | 279 | 6.4 | 12.9 | 0.00 | 0.00 | 0.00 | 26 | 997.4 |
| 20260505081547 | 20 | 278 | 3.2 | 11.3 | 0.00 | 0.00 | 0.00 | 26 | 997.5 |